Weather History for Farmington, NM

Change the Weather History Date:

Saturday, October 13, 2012

  Actual Average Record
Temperature  
Mean Temperature 46 °F -  
Max Temperature 61 °F 68 °F 82 °F (1991)
Min Temperature 32 °F 37 °F 21 °F (2008)
Degree Days  
Heating Degree Days 18    
Moisture  
Dew Point 33 °F    
Average Humidity 57    
Maximum Humidity 82    
Minimum Humidity 27    
Precipitation  
Precipitation 0.00 in - - ()
Sea Level Pressure  
Sea Level Pressure 30.13 in    
Wind  
Wind Speed 6 mph (WNW)    
Max Wind Speed 24 mph    
Max Gust Speed 30 mph    
Visibility 10 miles    
Events      
Averages and records for this station are not official NWS values.
T = Trace of Precipitation, MM = Missing Value Source: NWS Daily Summary

Daily Weather History Graph

Daily Weather History Graph

Search for Another Location

Airport:

Trip Planner

Search our weather history database for the weather conditions in past years. The results will help you decide how hot, cold, wet, or windy it might be!

Date:

Astronomy

Oct. 13, 2012 Rise Set
Actual Time 7:19 AM MDT 6:38 PM MDT
Civil Twilight 6:53 AM MDT 7:04 PM MDT
Nautical Twilight 6:22 AM MDT 7:34 PM MDT
Astronomical Twilight 5:53 AM MDT 8:04 PM MDT
Moon 5:14 AM MDT (10/13) 5:22 PM MDT (10/13)
Length of Visible Light 12h 11m
Length of Day
11h 19m
Waning Crescent, 4% of the Moon is Illuminated
Oct 13
Waning Crescent
Oct 15
New
Oct 21
First Quarter
Oct 29
Full
Nov 6
Last Quarter

Hourly Weather History & Observations

Time (MDT) Temp. Windchill Dew Point Humidity Pressure Visibility Wind Dir Wind Speed Gust Speed Precip Events Conditions
12:53 AM 41.0 °F - 30.0 °F 65% 30.05 in 10.0 mi Calm Calm - N/A   Scattered Clouds
1:53 AM 44.1 °F 42.5 °F 33.1 °F 65% 30.04 in 10.0 mi ESE 3.5 mph - N/A   Clear
2:53 AM 36.0 °F - 28.9 °F 76% 30.04 in 10.0 mi Calm Calm - N/A   Clear
3:53 AM 37.9 °F - 30.0 °F 73% 30.05 in 10.0 mi Calm Calm - N/A   Partly Cloudy
4:53 AM 34.0 °F - 28.9 °F 82% 30.08 in 10.0 mi Calm Calm - N/A   Clear
5:53 AM 34.0 °F - 28.0 °F 79% 30.11 in 10.0 mi Calm Calm - N/A   Clear
6:53 AM 34.0 °F 31.0 °F 28.0 °F 79% 30.13 in 10.0 mi East 3.5 mph - N/A   Mostly Cloudy
7:53 AM 39.0 °F - 32.0 °F 76% 30.14 in 10.0 mi Calm Calm - N/A   Overcast
8:53 AM 42.1 °F 40.2 °F 33.1 °F 70% 30.16 in 10.0 mi WSW 3.5 mph - N/A   Overcast
9:53 AM 48.0 °F - 36.0 °F 63% 30.14 in 10.0 mi West 9.2 mph - N/A   Mostly Cloudy
10:23 AM 48.2 °F - 35.6 °F 62% 30.19 in 10.0 mi WNW 10.4 mph - N/A   Overcast
10:53 AM 48.9 °F - 36.0 °F 61% 30.16 in 10.0 mi WNW 11.5 mph - N/A   Overcast
11:05 AM 50.0 °F - 35.6 °F 58% 30.20 in 10.0 mi NW 16.1 mph 20.7 mph N/A   Overcast
11:53 AM 51.1 °F - 36.0 °F 56% 30.15 in 10.0 mi West 10.4 mph - N/A   Overcast
12:53 PM 55.0 °F - 35.1 °F 47% 30.14 in 10.0 mi WNW 17.3 mph 24.2 mph N/A   Mostly Cloudy
1:53 PM 57.0 °F - 34.0 °F 42% 30.10 in 10.0 mi WNW 24.2 mph 28.8 mph N/A   Clear
2:53 PM 59.0 °F - 34.0 °F 39% 30.10 in 10.0 mi WNW 20.7 mph 29.9 mph N/A   Clear
3:53 PM 60.1 °F - 34.0 °F 38% 30.09 in 10.0 mi WNW 18.4 mph 27.6 mph N/A   Clear
4:53 PM 60.1 °F - 35.1 °F 39% 30.11 in 10.0 mi WNW 19.6 mph 26.5 mph N/A   Clear
6:53 PM 55.9 °F - 36.0 °F 47% 30.15 in 10.0 mi West 11.5 mph - N/A   Clear
7:53 PM 55.0 °F - 36.0 °F 49% 30.16 in 10.0 mi West 10.4 mph - N/A   Clear
8:53 PM 53.1 °F - 36.0 °F 52% 30.18 in 10.0 mi West 11.5 mph - N/A   Clear
9:53 PM 53.1 °F - 36.0 °F 52% 30.17 in 10.0 mi West 13.8 mph - N/A   Clear
11:53 PM 48.9 °F - 36.0 °F 61% 30.20 in 10.0 mi West 5.8 mph - N/A   Clear